Year,Month,Day,Hour,Minute,Value (Times are PST for windgust in km/hr)
2013,09,30,00,00,17.70
2013,09,30,00,01,17.70
2013,09,30,00,02,17.70
2013,09,30,00,03,27.40
2013,09,30,00,04,24.20
2013,09,30,00,05,24.20
2013,09,30,00,06,22.50
2013,09,30,00,07,17.70
2013,09,30,00,08,24.20
2013,09,30,00,09,22.50
2013,09,30,00,10,22.50
2013,09,30,00,11,25.70
2013,09,30,00,12,20.90
2013,09,30,00,13,25.70
2013,09,30,00,14,24.20
2013,09,30,00,15,25.70
2013,09,30,00,16,27.40
2013,09,30,00,17,22.50
2013,09,30,00,18,20.90
2013,09,30,00,19,22.50
2013,09,30,00,20,24.20
2013,09,30,00,21,27.40
2013,09,30,00,22,20.90
2013,09,30,00,23,17.70
2013,09,30,00,24,29.00
2013,09,30,00,25,30.60
2013,09,30,00,26,32.20
2013,09,30,00,27,24.20
2013,09,30,00,28,24.20
2013,09,30,00,29,19.30
2013,09,30,00,30,27.40
2013,09,30,00,31,22.50
2013,09,30,00,32,16.10
2013,09,30,00,33,25.70
2013,09,30,00,34,22.50
2013,09,30,00,35,24.20
2013,09,30,00,36,24.20
2013,09,30,00,37,27.40
2013,09,30,00,38,22.50
2013,09,30,00,39,35.40
2013,09,30,00,40,27.40
2013,09,30,00,41,32.20
2013,09,30,00,42,29.00
2013,09,30,00,43,29.00
2013,09,30,00,44,27.40
2013,09,30,00,45,20.90
2013,09,30,00,46,19.30
2013,09,30,00,47,22.50
2013,09,30,00,48,19.30
2013,09,30,00,49,27.40
2013,09,30,00,50,19.30
2013,09,30,00,51,20.90
2013,09,30,00,52,17.70
2013,09,30,00,53,19.30
2013,09,30,00,54,24.20
2013,09,30,00,55,25.70
2013,09,30,00,56,24.20
2013,09,30,00,57,27.40
2013,09,30,00,58,20.90
2013,09,30,00,59,25.70
2013,09,30,01,00,33.80
2013,09,30,01,01,25.70
2013,09,30,01,02,25.70
2013,09,30,01,03,35.40
2013,09,30,01,04,32.20
2013,09,30,01,05,22.50
2013,09,30,01,06,19.30
2013,09,30,01,07,22.50
2013,09,30,01,08,24.20
2013,09,30,01,09,27.40
2013,09,30,01,10,32.20
2013,09,30,01,11,24.20
2013,09,30,01,12,32.20
2013,09,30,01,13,24.20
2013,09,30,01,14,17.70
2013,09,30,01,15,25.70
2013,09,30,01,16,17.70
2013,09,30,01,17,16.10
2013,09,30,01,18,16.10
2013,09,30,01,19,17.70
2013,09,30,01,20,25.70
2013,09,30,01,21,20.90
2013,09,30,01,22,25.70
2013,09,30,01,23,20.90
2013,09,30,01,24,17.70
2013,09,30,01,25,19.30
2013,09,30,01,26,12.90
2013,09,30,01,27,17.70
2013,09,30,01,28,20.90
2013,09,30,01,29,27.40
2013,09,30,01,30,22.50
2013,09,30,01,31,22.50
2013,09,30,01,32,25.70
2013,09,30,01,33,27.40
2013,09,30,01,34,22.50
2013,09,30,01,35,17.70
2013,09,30,01,36,19.30
2013,09,30,01,37,22.50
2013,09,30,01,38,25.70
2013,09,30,01,39,24.20
2013,09,30,01,40,24.20
2013,09,30,01,41,25.70
2013,09,30,01,42,17.70
2013,09,30,01,43,22.50
2013,09,30,01,44,24.20
2013,09,30,01,45,20.90
2013,09,30,01,46,22.50
2013,09,30,01,47,20.90
2013,09,30,01,48,22.50
2013,09,30,01,49,32.20
2013,09,30,01,50,29.00
2013,09,30,01,51,19.30
2013,09,30,01,52,27.40
2013,09,30,01,53,17.70
2013,09,30,01,54,17.70
2013,09,30,01,55,14.50
2013,09,30,01,56,11.30
2013,09,30,01,57,11.30
2013,09,30,01,58,8.10
2013,09,30,01,59,16.10
2013,09,30,02,00,9.60
2013,09,30,02,01,20.90
2013,09,30,02,02,17.70
2013,09,30,02,03,19.30
2013,09,30,02,04,20.90
2013,09,30,02,05,20.90
2013,09,30,02,06,16.10
2013,09,30,02,07,19.30
2013,09,30,02,08,19.30
2013,09,30,02,09,24.20
2013,09,30,02,10,17.70
2013,09,30,02,11,19.30
2013,09,30,02,12,20.90
2013,09,30,02,13,19.30
2013,09,30,02,14,19.30
2013,09,30,02,15,16.10
2013,09,30,02,16,17.70
2013,09,30,02,17,19.30
2013,09,30,02,18,48.30
2013,09,30,02,19,35.40
2013,09,30,02,20,30.60
2013,09,30,02,21,20.90
2013,09,30,02,22,19.30
2013,09,30,02,23,17.70
2013,09,30,02,24,17.70
2013,09,30,02,25,19.30
2013,09,30,02,26,22.50
2013,09,30,02,27,16.10
2013,09,30,02,28,9.60
2013,09,30,02,29,11.30
2013,09,30,02,30,19.30
2013,09,30,02,31,25.70
2013,09,30,02,32,32.20
2013,09,30,02,33,27.40
2013,09,30,02,34,27.40
2013,09,30,02,35,29.00
2013,09,30,02,36,22.50
2013,09,30,02,37,27.40
2013,09,30,02,38,32.20
2013,09,30,02,39,27.40
2013,09,30,02,40,27.40
2013,09,30,02,41,22.50
2013,09,30,02,42,14.50
2013,09,30,02,43,19.30
2013,09,30,02,44,22.50
2013,09,30,02,45,19.30
2013,09,30,02,46,22.50
2013,09,30,02,47,24.20
2013,09,30,02,48,29.00
2013,09,30,02,49,32.20
2013,09,30,02,50,33.80
2013,09,30,02,51,24.20
2013,09,30,02,52,27.40
2013,09,30,02,53,25.70
2013,09,30,02,54,17.70
2013,09,30,02,55,19.30
2013,09,30,02,56,24.20
2013,09,30,02,57,25.70
2013,09,30,02,58,19.30
2013,09,30,02,59,25.70
2013,09,30,03,00,24.20
2013,09,30,03,01,24.20
2013,09,30,03,02,17.70
2013,09,30,03,03,25.70
2013,09,30,03,04,19.30
2013,09,30,03,05,19.30
2013,09,30,03,06,17.70
2013,09,30,03,07,14.50
2013,09,30,03,08,17.70
2013,09,30,03,09,22.50
2013,09,30,03,10,30.60
2013,09,30,03,11,38.60
2013,09,30,03,12,27.40
2013,09,30,03,13,27.40
2013,09,30,03,14,24.20
2013,09,30,03,15,29.00
2013,09,30,03,16,19.30
2013,09,30,03,17,20.90
2013,09,30,03,18,24.20
2013,09,30,03,19,24.20
2013,09,30,03,20,22.50
2013,09,30,03,21,33.80
2013,09,30,03,22,30.60
2013,09,30,03,23,38.60
2013,09,30,03,24,20.90
2013,09,30,03,25,22.50
2013,09,30,03,26,27.40
2013,09,30,03,27,20.90
2013,09,30,03,28,16.10
2013,09,30,03,29,25.70
2013,09,30,03,30,19.30
2013,09,30,03,31,16.10
2013,09,30,03,32,24.20
2013,09,30,03,33,24.20
2013,09,30,03,34,22.50
2013,09,30,03,35,24.20
2013,09,30,03,36,27.40
2013,09,30,03,37,35.40
2013,09,30,03,38,33.80
2013,09,30,03,39,24.20
2013,09,30,03,40,29.00
2013,09,30,03,41,32.20
2013,09,30,03,42,20.90
2013,09,30,03,43,22.50
2013,09,30,03,44,16.10
2013,09,30,03,45,22.50
2013,09,30,03,46,20.90
2013,09,30,03,47,20.90
2013,09,30,03,48,22.50
2013,09,30,03,49,29.00
2013,09,30,03,50,19.30
2013,09,30,03,51,19.30
2013,09,30,03,52,24.20
2013,09,30,03,53,22.50
2013,09,30,03,54,19.30
2013,09,30,03,55,14.50
2013,09,30,03,56,22.50
2013,09,30,03,57,17.70
2013,09,30,03,58,16.10
2013,09,30,03,59,14.50
2013,09,30,04,00,16.10
2013,09,30,04,01,11.30
2013,09,30,04,02,9.60
2013,09,30,04,03,14.50
2013,09,30,04,04,22.50
2013,09,30,04,05,20.90
2013,09,30,04,06,16.10
2013,09,30,04,07,20.90
2013,09,30,04,08,17.70
2013,09,30,04,09,16.10
2013,09,30,04,10,20.90
2013,09,30,04,11,19.30
2013,09,30,04,12,19.30
2013,09,30,04,13,19.30
2013,09,30,04,14,14.50
2013,09,30,04,15,19.30
2013,09,30,04,16,20.90
2013,09,30,04,17,16.10
2013,09,30,04,18,16.10
2013,09,30,04,19,24.20
2013,09,30,04,20,16.10
2013,09,30,04,21,12.90
2013,09,30,04,22,17.70
2013,09,30,04,23,19.30
2013,09,30,04,24,16.10
2013,09,30,04,25,20.90
2013,09,30,04,26,17.70
2013,09,30,04,27,17.70
2013,09,30,04,28,19.30
2013,09,30,04,29,20.90
2013,09,30,04,30,17.70
2013,09,30,04,31,19.30
2013,09,30,04,32,19.30
2013,09,30,04,33,22.50
2013,09,30,04,34,22.50
2013,09,30,04,35,22.50
2013,09,30,04,36,24.20
2013,09,30,04,37,24.20
2013,09,30,04,38,17.70
2013,09,30,04,39,16.10
2013,09,30,04,40,9.60
2013,09,30,04,41,11.30
2013,09,30,04,42,17.70
2013,09,30,04,43,12.90
2013,09,30,04,44,25.70
2013,09,30,04,45,16.10
2013,09,30,04,46,24.20
2013,09,30,04,47,24.20
2013,09,30,04,48,20.90
2013,09,30,04,49,32.20
2013,09,30,04,50,30.60
2013,09,30,04,51,22.50
2013,09,30,04,52,27.40
2013,09,30,04,53,22.50
2013,09,30,04,54,17.70
2013,09,30,04,55,22.50
2013,09,30,04,56,25.70
2013,09,30,04,57,25.70
2013,09,30,04,58,19.30
2013,09,30,04,59,16.10
2013,09,30,05,00,17.70
2013,09,30,05,01,24.20
2013,09,30,05,02,20.90
2013,09,30,05,03,20.90
2013,09,30,05,04,17.70
2013,09,30,05,05,24.20
2013,09,30,05,06,24.20
2013,09,30,05,07,20.90
2013,09,30,05,08,19.30
2013,09,30,05,09,20.90
2013,09,30,05,10,17.70
2013,09,30,05,11,17.70
2013,09,30,05,12,16.10
2013,09,30,05,13,16.10
2013,09,30,05,14,17.70
2013,09,30,05,15,17.70
2013,09,30,05,16,20.90
2013,09,30,05,17,19.30
2013,09,30,05,18,19.30
2013,09,30,05,19,19.30
2013,09,30,05,20,12.90
2013,09,30,05,21,16.10
2013,09,30,05,22,16.10
2013,09,30,05,23,12.90
2013,09,30,05,24,16.10
2013,09,30,05,25,22.50
2013,09,30,05,26,20.90
2013,09,30,05,27,19.30
2013,09,30,05,28,19.30
2013,09,30,05,29,17.70
2013,09,30,05,30,17.70
2013,09,30,05,31,12.90
2013,09,30,05,32,16.10
2013,09,30,05,33,11.30
2013,09,30,05,34,11.30
2013,09,30,05,35,17.70
2013,09,30,05,36,19.30
2013,09,30,05,37,19.30
2013,09,30,05,38,29.00
2013,09,30,05,39,33.80
2013,09,30,05,40,29.00
2013,09,30,05,41,27.40
2013,09,30,05,42,24.20
2013,09,30,05,43,14.50
2013,09,30,05,44,17.70
2013,09,30,05,45,14.50
2013,09,30,05,46,9.60
2013,09,30,05,47,14.50
2013,09,30,05,48,14.50
2013,09,30,05,49,8.10
2013,09,30,05,50,11.30
2013,09,30,05,51,17.70
2013,09,30,05,52,17.70
2013,09,30,05,53,17.70
2013,09,30,05,54,14.50
2013,09,30,05,55,11.30
2013,09,30,05,56,16.10
2013,09,30,05,57,16.10
2013,09,30,05,58,19.30
2013,09,30,05,59,14.50
2013,09,30,06,00,9.60
2013,09,30,06,01,8.10
2013,09,30,06,02,14.50
2013,09,30,06,03,8.10
2013,09,30,06,04,17.70
2013,09,30,06,05,17.70
2013,09,30,06,06,9.60
2013,09,30,06,07,6.40
2013,09,30,06,08,6.40
2013,09,30,06,09,6.40
2013,09,30,06,10,8.10
2013,09,30,06,13,3.20
2013,09,30,06,14,3.20
2013,09,30,07,21,4.80
2013,09,30,07,22,9.60
2013,09,30,07,23,9.60
2013,09,30,07,24,3.20
2013,09,30,07,25,8.10
2013,09,30,07,29,1.60
2013,09,30,07,30,9.60
2013,09,30,07,31,9.60
2013,09,30,07,32,9.60
2013,09,30,07,33,16.10
2013,09,30,07,34,11.30
2013,09,30,07,35,9.60
2013,09,30,07,36,8.10
2013,09,30,07,37,14.50
2013,09,30,07,38,12.90
2013,09,30,07,39,16.10
2013,09,30,07,40,17.70
2013,09,30,07,41,16.10
2013,09,30,07,42,19.30
2013,09,30,07,43,20.90
2013,09,30,07,44,19.30
2013,09,30,07,45,16.10
2013,09,30,07,46,20.90
2013,09,30,07,47,20.90
2013,09,30,07,48,19.30
2013,09,30,07,49,19.30
2013,09,30,07,50,11.30
2013,09,30,07,51,12.90
2013,09,30,07,52,16.10
2013,09,30,07,53,16.10
2013,09,30,07,54,16.10
2013,09,30,07,55,9.60
2013,09,30,07,56,20.90
2013,09,30,07,57,19.30
2013,09,30,07,58,17.70
2013,09,30,07,59,17.70
2013,09,30,08,00,16.10
2013,09,30,08,01,16.10
2013,09,30,08,02,16.10
2013,09,30,08,03,17.70
2013,09,30,08,04,17.70
2013,09,30,08,05,17.70
2013,09,30,08,06,24.20
2013,09,30,08,07,27.40
2013,09,30,08,08,17.70
2013,09,30,08,09,14.50
2013,09,30,08,10,12.90
2013,09,30,08,11,11.30
2013,09,30,08,12,9.60
2013,09,30,08,13,14.50
2013,09,30,08,14,16.10
2013,09,30,08,15,8.10
2013,09,30,08,16,17.70
2013,09,30,08,17,11.30
2013,09,30,08,18,11.30
2013,09,30,08,19,17.70
2013,09,30,08,20,17.70
2013,09,30,08,21,11.30
2013,09,30,08,22,11.30
2013,09,30,08,23,8.10
2013,09,30,08,24,8.10
2013,09,30,08,25,9.60
2013,09,30,08,26,16.10
2013,09,30,08,27,8.10
2013,09,30,08,28,11.30
2013,09,30,08,29,11.30
2013,09,30,08,30,6.40
2013,09,30,08,31,4.80
2013,09,30,08,35,3.20
2013,09,30,08,36,9.60
2013,09,30,08,37,8.10
2013,09,30,08,38,3.20
2013,09,30,08,41,8.10
2013,09,30,08,42,9.60
2013,09,30,08,43,9.60
2013,09,30,08,44,8.10
2013,09,30,08,48,4.80
2013,09,30,08,53,4.80
2013,09,30,08,54,6.40
2013,09,30,08,55,1.60
2013,09,30,08,59,3.20
2013,09,30,09,00,8.10
2013,09,30,09,03,4.80
2013,09,30,09,05,8.10
2013,09,30,09,06,4.80
2013,09,30,09,07,4.80
2013,09,30,09,09,6.40
2013,09,30,09,10,9.60
2013,09,30,09,11,4.80
2013,09,30,09,13,8.10
2013,09,30,09,14,6.40
2013,09,30,09,15,11.30
2013,09,30,09,16,9.60
2013,09,30,09,17,4.80
2013,09,30,09,18,6.40
2013,09,30,09,19,4.80
2013,09,30,09,20,4.80
2013,09,30,09,21,11.30
2013,09,30,09,22,6.40
2013,09,30,09,23,6.40
2013,09,30,09,24,8.10
2013,09,30,09,25,11.30
2013,09,30,09,26,9.60
2013,09,30,09,27,9.60
2013,09,30,09,28,6.40
2013,09,30,09,29,8.10
2013,09,30,09,30,9.60
2013,09,30,09,31,3.20
2013,09,30,09,32,6.40
2013,09,30,09,34,6.40
2013,09,30,09,35,6.40
2013,09,30,09,36,1.60
2013,09,30,09,41,6.40
2013,09,30,09,42,6.40
2013,09,30,09,43,8.10
2013,09,30,09,44,4.80
2013,09,30,09,45,11.30
2013,09,30,09,46,9.60
2013,09,30,09,47,11.30
2013,09,30,09,48,9.60
2013,09,30,09,49,8.10
2013,09,30,09,50,6.40
2013,09,30,09,51,9.60
2013,09,30,09,52,9.60
2013,09,30,09,53,17.70
2013,09,30,09,54,14.50
2013,09,30,09,55,6.40
2013,09,30,09,56,8.10
2013,09,30,09,57,20.90
2013,09,30,09,58,16.10
2013,09,30,09,59,12.90
2013,09,30,10,00,6.40
2013,09,30,10,01,6.40
2013,09,30,10,02,8.10
2013,09,30,10,03,4.80
2013,09,30,10,04,4.80
2013,09,30,10,05,4.80
2013,09,30,10,06,4.80
2013,09,30,10,07,8.10
2013,09,30,10,08,8.10
2013,09,30,10,09,9.60
2013,09,30,10,10,9.60
2013,09,30,10,11,6.40
2013,09,30,10,12,9.60
2013,09,30,10,13,16.10
2013,09,30,10,14,9.60
2013,09,30,10,15,12.90
2013,09,30,10,16,11.30
2013,09,30,10,17,11.30
2013,09,30,10,18,9.60
2013,09,30,10,19,11.30
2013,09,30,10,20,11.30
2013,09,30,10,21,16.10
2013,09,30,10,22,16.10
2013,09,30,10,23,16.10
2013,09,30,10,24,17.70
2013,09,30,10,25,14.50
2013,09,30,10,26,9.60
2013,09,30,10,27,11.30
2013,09,30,10,28,8.10
2013,09,30,10,29,11.30
2013,09,30,10,30,11.30
2013,09,30,10,31,11.30
2013,09,30,10,32,11.30
2013,09,30,10,33,11.30
2013,09,30,10,34,14.50
2013,09,30,10,35,8.10
2013,09,30,10,36,4.80
2013,09,30,10,37,11.30
2013,09,30,10,38,9.60
2013,09,30,10,39,9.60
2013,09,30,10,40,3.20
2013,09,30,10,41,8.10
2013,09,30,10,42,9.60
2013,09,30,10,43,8.10
2013,09,30,10,44,3.20
2013,09,30,10,47,4.80
2013,09,30,10,48,8.10
2013,09,30,10,51,4.80
2013,09,30,10,52,14.50
2013,09,30,10,53,16.10
2013,09,30,10,54,4.80
2013,09,30,10,55,9.60
2013,09,30,10,56,3.20
2013,09,30,10,57,4.80
2013,09,30,10,58,9.60
2013,09,30,10,59,11.30
2013,09,30,11,00,6.40
2013,09,30,11,06,1.60
2013,09,30,11,07,1.60
2013,09,30,11,09,8.10
2013,09,30,11,10,8.10
2013,09,30,11,11,9.60
2013,09,30,11,12,11.30
2013,09,30,11,13,16.10
2013,09,30,11,14,17.70
2013,09,30,11,15,16.10
2013,09,30,11,16,17.70
2013,09,30,11,17,19.30
2013,09,30,11,18,14.50
2013,09,30,11,19,16.10
2013,09,30,11,20,11.30
2013,09,30,11,21,11.30
2013,09,30,11,22,8.10
2013,09,30,11,23,9.60
2013,09,30,11,25,4.80
2013,09,30,11,26,9.60
2013,09,30,11,27,14.50
2013,09,30,11,28,17.70
2013,09,30,11,29,14.50
2013,09,30,11,30,16.10
2013,09,30,11,31,14.50
2013,09,30,11,32,27.40
2013,09,30,11,33,24.20
2013,09,30,11,34,11.30
2013,09,30,11,35,14.50
2013,09,30,11,36,11.30
2013,09,30,11,37,1.60
2013,09,30,11,39,8.10
2013,09,30,11,40,14.50
2013,09,30,11,41,14.50
2013,09,30,11,42,11.30
2013,09,30,11,43,11.30
2013,09,30,11,44,8.10
2013,09,30,11,45,12.90
2013,09,30,11,46,11.30
2013,09,30,11,47,11.30
2013,09,30,11,48,8.10
2013,09,30,11,49,4.80
2013,09,30,11,50,9.60
2013,09,30,11,51,6.40
2013,09,30,11,52,8.10
2013,09,30,11,53,8.10
2013,09,30,11,54,11.30
2013,09,30,11,55,11.30
2013,09,30,11,56,16.10
2013,09,30,11,57,19.30
2013,09,30,11,58,22.50
2013,09,30,11,59,14.50
2013,09,30,12,00,16.10
2013,09,30,12,01,16.10
2013,09,30,12,02,14.50
2013,09,30,12,03,11.30
2013,09,30,12,04,16.10
2013,09,30,12,05,17.70
2013,09,30,12,06,9.60
2013,09,30,12,07,11.30
2013,09,30,12,08,14.50
2013,09,30,12,09,17.70
2013,09,30,12,10,16.10
2013,09,30,12,11,16.10
2013,09,30,12,12,9.60
2013,09,30,12,13,11.30
2013,09,30,12,14,4.80
2013,09,30,12,19,4.80
2013,09,30,12,20,11.30
2013,09,30,12,21,20.90
2013,09,30,12,22,19.30
2013,09,30,12,23,27.40
2013,09,30,12,24,16.10
2013,09,30,12,25,4.80
2013,09,30,12,27,8.10
2013,09,30,12,28,8.10
2013,09,30,12,29,11.30
2013,09,30,12,30,16.10
2013,09,30,12,31,11.30
2013,09,30,12,32,9.60
2013,09,30,12,33,8.10
2013,09,30,12,34,11.30
2013,09,30,12,35,8.10
2013,09,30,12,38,6.40
2013,09,30,12,39,9.60
2013,09,30,12,40,8.10
2013,09,30,12,41,8.10
2013,09,30,12,44,8.10
2013,09,30,12,45,11.30
2013,09,30,12,46,9.60
2013,09,30,12,47,8.10
2013,09,30,12,48,8.10
2013,09,30,12,49,11.30
2013,09,30,12,50,3.20
2013,09,30,12,51,11.30
2013,09,30,12,52,16.10
2013,09,30,12,53,12.90
2013,09,30,12,54,16.10
2013,09,30,12,55,17.70
2013,09,30,12,56,14.50
2013,09,30,12,57,9.60
2013,09,30,12,58,9.60
2013,09,30,12,59,9.60
2013,09,30,13,00,17.70
2013,09,30,13,01,17.70
2013,09,30,13,02,17.70
2013,09,30,13,03,14.50
2013,09,30,13,04,16.10
2013,09,30,13,05,17.70
2013,09,30,13,06,16.10
2013,09,30,13,07,19.30
2013,09,30,13,08,17.70
2013,09,30,13,09,17.70
2013,09,30,13,10,9.60
2013,09,30,13,11,8.10
2013,09,30,13,12,16.10
2013,09,30,13,13,9.60
2013,09,30,13,14,1.60
2013,09,30,13,15,8.10
2013,09,30,13,16,9.60
2013,09,30,13,17,11.30
2013,09,30,13,18,3.20
2013,09,30,13,20,4.80
2013,09,30,13,21,6.40
2013,09,30,13,29,4.80
2013,09,30,13,35,4.80
2013,09,30,13,36,9.60
2013,09,30,13,37,8.10
2013,09,30,13,38,8.10
2013,09,30,13,43,1.60
2013,09,30,13,51,4.80
2013,09,30,13,52,8.10
2013,09,30,13,53,11.30
2013,09,30,13,54,11.30
2013,09,30,13,55,11.30
2013,09,30,13,56,19.30
2013,09,30,13,57,24.20
2013,09,30,13,58,20.90
2013,09,30,13,59,19.30
2013,09,30,14,00,24.20
2013,09,30,14,01,20.90
2013,09,30,14,02,20.90
2013,09,30,14,03,20.90
2013,09,30,14,04,14.50
2013,09,30,14,05,19.30
2013,09,30,14,06,16.10
2013,09,30,14,07,17.70
2013,09,30,14,08,22.50
2013,09,30,14,09,20.90
2013,09,30,14,10,17.70
2013,09,30,14,11,17.70
2013,09,30,14,12,17.70
2013,09,30,14,13,16.10
2013,09,30,14,14,17.70
2013,09,30,14,15,22.50
2013,09,30,14,16,16.10
2013,09,30,14,17,16.10
2013,09,30,14,18,17.70
2013,09,30,14,19,17.70
2013,09,30,14,20,11.30
2013,09,30,14,21,19.30
2013,09,30,14,22,19.30
2013,09,30,14,23,14.50
2013,09,30,14,24,24.20
2013,09,30,14,25,19.30
2013,09,30,14,26,17.70
2013,09,30,14,27,16.10
2013,09,30,14,28,17.70
2013,09,30,14,29,20.90
2013,09,30,14,30,19.30
2013,09,30,14,31,16.10
2013,09,30,14,32,17.70
2013,09,30,14,33,17.70
2013,09,30,14,34,17.70
2013,09,30,14,35,14.50
2013,09,30,14,36,17.70
2013,09,30,14,37,16.10
2013,09,30,14,38,16.10
2013,09,30,14,39,19.30
2013,09,30,14,40,11.30
2013,09,30,14,41,17.70
2013,09,30,14,42,14.50
2013,09,30,14,43,17.70
2013,09,30,14,44,19.30
2013,09,30,14,45,17.70
2013,09,30,14,46,17.70
2013,09,30,14,47,17.70
2013,09,30,14,48,16.10
2013,09,30,14,49,16.10
2013,09,30,14,50,16.10
2013,09,30,14,51,19.30
2013,09,30,14,52,14.50
2013,09,30,14,53,14.50
2013,09,30,14,54,12.90
2013,09,30,14,55,16.10
2013,09,30,14,56,14.50
2013,09,30,14,57,8.10
2013,09,30,14,58,11.30
2013,09,30,14,59,11.30
2013,09,30,15,00,17.70
2013,09,30,15,01,19.30
2013,09,30,15,02,17.70
2013,09,30,15,03,20.90
2013,09,30,15,04,17.70
2013,09,30,15,05,11.30
2013,09,30,15,06,16.10
2013,09,30,15,07,20.90
2013,09,30,15,08,16.10
2013,09,30,15,09,19.30
2013,09,30,15,10,16.10
2013,09,30,15,11,14.50
2013,09,30,15,12,14.50
2013,09,30,15,13,9.60
2013,09,30,15,14,11.30
2013,09,30,15,15,14.50
2013,09,30,15,16,27.40
2013,09,30,15,17,24.20
2013,09,30,15,18,25.70
2013,09,30,15,19,19.30
2013,09,30,15,20,16.10
2013,09,30,15,21,20.90
2013,09,30,15,22,16.10
2013,09,30,15,23,11.30
2013,09,30,15,24,16.10
2013,09,30,15,25,16.10
2013,09,30,15,26,11.30
2013,09,30,15,27,14.50
2013,09,30,15,28,11.30
2013,09,30,15,29,8.10
2013,09,30,15,30,16.10
2013,09,30,15,31,12.90
2013,09,30,15,32,16.10
2013,09,30,15,33,11.30
2013,09,30,15,34,14.50
2013,09,30,15,35,9.60
2013,09,30,15,36,4.80
2013,09,30,15,37,11.30
2013,09,30,15,38,8.10
2013,09,30,15,39,4.80
2013,09,30,15,40,6.40
2013,09,30,15,46,8.10
2013,09,30,15,47,11.30
2013,09,30,15,48,8.10
2013,09,30,15,49,4.80
2013,09,30,15,50,11.30
2013,09,30,15,51,14.50
2013,09,30,15,52,16.10
2013,09,30,15,53,17.70
2013,09,30,15,54,16.10
2013,09,30,15,55,19.30
2013,09,30,15,56,16.10
2013,09,30,15,57,16.10
2013,09,30,15,58,8.10
2013,09,30,15,59,11.30
2013,09,30,16,00,9.60
2013,09,30,16,01,19.30
2013,09,30,16,02,19.30
2013,09,30,16,03,8.10
2013,09,30,16,04,14.50
2013,09,30,16,05,19.30
2013,09,30,16,06,14.50
2013,09,30,16,07,19.30
2013,09,30,16,08,19.30
2013,09,30,16,09,9.60
2013,09,30,16,10,11.30
2013,09,30,16,11,14.50
2013,09,30,16,12,8.10
2013,09,30,16,13,11.30
2013,09,30,16,14,16.10
2013,09,30,16,15,16.10
2013,09,30,16,16,11.30
2013,09,30,16,17,11.30
2013,09,30,16,18,12.90
2013,09,30,16,19,12.90
2013,09,30,16,20,11.30
2013,09,30,16,21,6.40
2013,09,30,16,23,3.20
2013,09,30,16,24,14.50
2013,09,30,16,25,16.10
2013,09,30,16,26,17.70
2013,09,30,16,27,19.30
2013,09,30,16,28,16.10
2013,09,30,16,29,12.90
2013,09,30,16,30,17.70
2013,09,30,16,31,16.10
2013,09,30,16,32,9.60
2013,09,30,16,33,17.70
2013,09,30,16,34,11.30
2013,09,30,16,35,8.10
2013,09,30,16,36,11.30
2013,09,30,16,37,17.70
2013,09,30,16,38,16.10
2013,09,30,16,39,14.50
2013,09,30,16,40,9.60
2013,09,30,16,41,9.60
2013,09,30,16,42,9.60
2013,09,30,16,43,11.30
2013,09,30,16,44,14.50
2013,09,30,16,45,12.90
2013,09,30,16,46,16.10
2013,09,30,16,47,17.70
2013,09,30,16,48,16.10
2013,09,30,16,49,9.60
2013,09,30,16,50,11.30
2013,09,30,16,51,9.60
2013,09,30,16,52,9.60
2013,09,30,16,53,8.10
2013,09,30,16,54,17.70
2013,09,30,16,55,14.50
2013,09,30,16,56,16.10
2013,09,30,16,57,16.10
2013,09,30,16,58,12.90
2013,09,30,16,59,9.60
2013,09,30,17,00,14.50
2013,09,30,17,01,11.30
2013,09,30,17,02,14.50
2013,09,30,17,03,20.90
2013,09,30,17,04,17.70
2013,09,30,17,05,17.70
2013,09,30,17,06,19.30
2013,09,30,17,07,16.10
2013,09,30,17,08,11.30
2013,09,30,17,09,17.70
2013,09,30,17,10,17.70
2013,09,30,17,11,24.20
2013,09,30,17,12,24.20
2013,09,30,17,13,33.80
2013,09,30,17,14,33.80
2013,09,30,17,15,20.90
2013,09,30,17,16,19.30
2013,09,30,17,17,25.70
2013,09,30,17,18,27.40
2013,09,30,17,19,37.00
2013,09,30,17,20,33.80
2013,09,30,17,21,19.30
2013,09,30,17,22,20.90
2013,09,30,17,23,16.10
2013,09,30,17,24,16.10
2013,09,30,17,25,19.30
2013,09,30,17,26,24.20
2013,09,30,17,27,14.50
2013,09,30,17,28,20.90
2013,09,30,17,29,19.30
2013,09,30,17,30,27.40
2013,09,30,17,31,29.00
2013,09,30,17,32,25.70
2013,09,30,17,33,24.20
2013,09,30,17,34,19.30
2013,09,30,17,35,20.90
2013,09,30,17,36,12.90
2013,09,30,17,37,22.50
2013,09,30,17,38,22.50
2013,09,30,17,39,14.50
2013,09,30,17,40,29.00
2013,09,30,17,41,20.90
2013,09,30,17,42,20.90
2013,09,30,17,43,8.10
2013,09,30,17,44,22.50
2013,09,30,17,45,20.90
2013,09,30,17,46,19.30
2013,09,30,17,47,16.10
2013,09,30,17,48,20.90
2013,09,30,17,49,14.50
2013,09,30,17,50,17.70
2013,09,30,17,51,17.70
2013,09,30,17,52,19.30
2013,09,30,17,53,16.10
2013,09,30,17,54,16.10
2013,09,30,17,55,11.30
2013,09,30,17,56,14.50
2013,09,30,17,57,11.30
2013,09,30,17,58,17.70
2013,09,30,17,59,16.10
2013,09,30,18,00,19.30
2013,09,30,18,01,16.10
2013,09,30,18,02,16.10
2013,09,30,18,03,14.50
2013,09,30,18,04,11.30
2013,09,30,18,05,9.60
2013,09,30,18,06,11.30
2013,09,30,18,07,9.60
2013,09,30,18,08,9.60
2013,09,30,18,09,12.90
2013,09,30,18,10,16.10
2013,09,30,18,11,11.30
2013,09,30,18,12,16.10
2013,09,30,18,13,9.60
2013,09,30,18,14,6.40
2013,09,30,18,15,8.10
2013,09,30,18,16,6.40
2013,09,30,18,18,8.10
2013,09,30,18,19,14.50
2013,09,30,18,20,9.60
2013,09,30,18,21,9.60
2013,09,30,18,22,14.50
2013,09,30,18,23,11.30
2013,09,30,18,24,14.50
2013,09,30,18,25,16.10
2013,09,30,18,26,12.90
2013,09,30,18,27,11.30
2013,09,30,18,28,14.50
2013,09,30,18,29,24.20
2013,09,30,18,30,24.20
2013,09,30,18,31,19.30
2013,09,30,18,32,17.70
2013,09,30,18,33,19.30
2013,09,30,18,34,27.40
2013,09,30,18,35,22.50
2013,09,30,18,36,24.20
2013,09,30,18,37,19.30
2013,09,30,18,38,19.30
2013,09,30,18,39,14.50
2013,09,30,18,40,27.40
2013,09,30,18,41,29.00
2013,09,30,18,42,22.50
2013,09,30,18,43,19.30
2013,09,30,18,44,29.00
2013,09,30,18,45,17.70
2013,09,30,18,46,19.30
2013,09,30,18,47,14.50
2013,09,30,18,48,22.50
2013,09,30,18,49,19.30
2013,09,30,18,50,11.30
2013,09,30,18,51,17.70
2013,09,30,18,52,14.50
2013,09,30,18,53,14.50
2013,09,30,18,54,19.30
2013,09,30,18,55,14.50
2013,09,30,18,56,9.60
2013,09,30,18,57,9.60
2013,09,30,18,58,11.30
2013,09,30,18,59,4.80
2013,09,30,19,00,11.30
2013,09,30,19,01,9.60
2013,09,30,19,02,11.30
2013,09,30,19,03,8.10
2013,09,30,19,04,9.60
2013,09,30,19,05,11.30
2013,09,30,19,06,9.60
2013,09,30,19,07,11.30
2013,09,30,19,08,14.50
2013,09,30,19,09,12.90
2013,09,30,19,10,20.90
2013,09,30,19,11,20.90
2013,09,30,19,12,11.30
2013,09,30,19,13,17.70
2013,09,30,19,14,17.70
2013,09,30,19,15,22.50
2013,09,30,19,16,27.40
2013,09,30,19,17,24.20
2013,09,30,19,18,17.70
2013,09,30,19,19,16.10
2013,09,30,19,20,16.10
2013,09,30,19,21,25.70
2013,09,30,19,22,19.30
2013,09,30,19,23,12.90
2013,09,30,19,24,24.20
2013,09,30,19,25,16.10
2013,09,30,19,26,19.30
2013,09,30,19,27,19.30
2013,09,30,19,28,17.70
2013,09,30,19,29,19.30
2013,09,30,19,30,19.30
2013,09,30,19,31,16.10
2013,09,30,19,32,19.30
2013,09,30,19,33,20.90
2013,09,30,19,34,16.10
2013,09,30,19,35,17.70
2013,09,30,19,36,20.90
2013,09,30,19,37,16.10
2013,09,30,19,38,11.30
2013,09,30,19,39,16.10
2013,09,30,19,40,19.30
2013,09,30,19,41,17.70
2013,09,30,19,42,19.30
2013,09,30,19,43,19.30
2013,09,30,19,44,9.60
2013,09,30,19,45,11.30
2013,09,30,19,46,16.10
2013,09,30,19,47,17.70
2013,09,30,19,48,9.60
2013,09,30,19,49,16.10
2013,09,30,19,50,14.50
2013,09,30,19,51,14.50
2013,09,30,19,52,6.40
2013,09,30,19,53,1.60
2013,09,30,19,54,8.10
2013,09,30,19,55,6.40
2013,09,30,19,57,8.10
2013,09,30,19,58,8.10